GW3498 Weather Reports


Display with metric or nautical units.
time (UTC)temp
F
wind
direction
speed
MPH
gust
MPH
rain 1hr
in
rain 24hr
in
rain mn
in
humidity
%
barometer
mb
20260904225520 75 36 0.0 1.0 0.00 0.00 0.00 52 1020.0
20260904224554 76 41 0.0 1.0 0.00 0.00 0.00 53 1020.0
20260904223549 77 45 0.0 1.0 0.00 0.00 0.00 51 1020.0
20260904222523 76 35 0.0 1.0 0.00 0.00 0.00 50 1020.0
20260904221539 76 50 0.0 1.0 0.00 0.00 0.00 48 1020.1
20260904220554 77 0.0 0.0 0.00 0.00 0.00 47 1019.9
20260904215529 76 40 0.0 1.0 0.00 0.00 0.00 47 1020.0
20260904214544 76 28 0.0 1.0 0.00 0.00 0.00 49 1019.9
20260904213519 76 56 0.0 1.0 0.00 0.00 0.00 49 1019.9
20260904212534 76 52 0.0 1.0 0.00 0.00 0.00 50 1020.0
20260904211528 77 0.0 0.0 0.00 0.00 0.00 52 1020.0
20260904210604 77 39 0.0 1.0 0.00 0.00 0.00 51 1020.0
20260904205518 77 0.0 0.0 0.00 0.00 0.00 52 1020.1
20260904204533 78 0.0 0.0 0.00 0.00 0.00 51 1020.0
20260904203526 78 43 0.0 1.0 0.00 0.00 0.00 50 1020.2
20260904202521 76 0.0 0.0 0.00 0.00 0.00 52 1020.2
20260904201516 77 39 0.0 1.0 0.00 0.00 0.00 51 1020.2
20260904200531 76 0.0 0.0 0.00 0.00 0.00 53 1020.4
20260904195526 78 0.0 0.0 0.00 0.00 0.00 51 1020.3
20260904194701 80 19 0.0 2.0 0.00 0.00 0.00 46 1020.3
20260904193536 79 3 1.0 3.0 0.00 0.00 0.00 46 1020.2
20260904192530 79 25 1.0 2.0 0.00 0.00 0.00 46 1020.4
20260904191524 79 52 0.0 2.0 0.00 0.00 0.00 47 1020.2
20260904190519 80 65 0.0 1.0 0.00 0.00 0.00 46 1020.3
20260904185533 80 40 1.0 3.0 0.00 0.00 0.00 44 1020.2
20260904184528 80 12 1.0 2.0 0.00 0.00 0.00 44 1020.1
20260904183550 81 19 1.0 3.0 0.00 0.00 0.00 43 1020.0
20260904182539 81 38 1.0 2.0 0.00 0.00 0.00 44 1019.9
20260904181533 81 40 1.0 2.0 0.00 0.00 0.00 45 1019.8
20260904180527 81 94 0.0 1.0 0.00 0.00 0.00 47 1019.6
20260904175522 82 27 1.0 3.0 0.00 0.00 0.00 46 1019.4
20260904174516 82 23 2.0 4.0 0.00 0.00 0.00 46 1019.3
20260904173531 83 15 1.0 3.0 0.00 0.00 0.00 48 1019.3
20260904172526 83 13 1.0 3.0 0.00 0.00 0.00 47 1019.3
20260904171520 84 345 1.0 3.0 0.00 0.00 0.00 46 1019.3
20260904170534 85 335 1.0 3.0 0.00 0.00 0.00 44 1019.3
20260904165530 86 304 1.0 3.0 0.00 0.00 0.00 42 1019.3
20260904164524 86 278 1.0 2.0 0.00 0.00 0.00 41 1019.2
20260904163519 87 20 1.0 4.0 0.00 0.00 0.00 41 1019.2
20260904162533 88 347 1.0 6.0 0.00 0.00 0.00 39 1019.2
20260904161529 89 277 1.0 3.0 0.00 0.00 0.00 39 1019.3
20260904160523 88 287 2.0 4.0 0.00 0.00 0.00 38 1019.0
20260904155518 88 353 3.0 6.0 0.00 0.00 0.00 38 1019.1
20260904154532 89 355 2.0 4.0 0.00 0.00 0.00 38 1018.9
20260904153526 90 265 2.0 4.0 0.00 0.00 0.00 37 1019.0
20260904152521 91 212 1.0 4.0 0.00 0.00 0.00 37 1019.1
20260904151535 91 254 1.0 4.0 0.00 0.00 0.00 37 1019.2
20260904150531 91 291 2.0 6.0 0.00 0.00 0.00 38 1018.9
20260904145524 91 241 2.0 6.0 0.00 0.00 0.00 38 1019.0
20260904144520 92 230 1.0 3.0 0.00 0.00 0.00 37 1019.2